Location: Peebles
(55.6412°N, 3.1714°W)
Time: 13:27:34
(UTC+00:00)

RS-15 - Pass Details

Date: 02 December 2023
Orbit: 1893 x 2151 km, 64.8° (Epoch: 02 March)

Event Time Altitude Azimuth Distance (km) Brightness Sun altitude
Rises 20:55:12 0° 198° (SSW) 5,651 10.4 -41.9°
Reaches altitude 10° 20:58:44 10° 194° (SSW) 4,638 9.9 -42.4°
Enters shadow 20:59:24 12° 193° (SSW) 4,454 9.8 -42.4°
Exits shadow 21:24:09 - 44° (NE) 5,200 10.2 -45.5°
Sets 21:25:01 0° 44° (NE) 5,452 10.3 -45.6°
